When you browse on this site, cookies collect data to enhance your experience and personalize the content and advertising you see.
Visit our Privacy Policy to learn more. By continuing to use the site, you agree to this use of cookies and data.
  • In Romania
  • List of Countries
  • For 7 days
  • Water Temperature
  • Satellite Maps
  • Weather Map
  • Weather Widgets
  • user-avatar
    Login

    Hourly Weather Lebyazhe

    Today, 17 November, Saturday

    Time Temperature Precipitation Wind Pressure Humidity
    00:00 -4°C° 0 mm 2 mps 769 mmHg 28%
    01:00 -4°C° 0 mm 2 mps 769 mmHg 28%
    02:00 -4°C° 0 mm 2 mps 769 mmHg 28%
    03:00 -3°C° 0 mm 1 mps 769 mmHg 27%
    04:00 -3°C° 0 mm 1 mps 769 mmHg 27%
    05:00 -3°C° 0 mm 1 mps 768 mmHg 27%
    06:00 -3°C° 0 mm 1 mps 768 mmHg 27%
    07:00 -3°C° 0 mm 1 mps 768 mmHg 26%
    08:00 -2°C° 0 mm 1 mps 768 mmHg 25%
    09:00 -2°C° 0 mm 1 mps 768 mmHg 23%
    10:00 -1°C° 0 mm 1 mps 767 mmHg 21%
    11:00 0°C° 0 mm 1 mps 767 mmHg 20%
    12:00 +1°C° 0 mm 1 mps 767 mmHg 18%
    13:00 +1°C° 0 mm 1 mps 766 mmHg 20%
    14:00 +1°C° 0 mm 1 mps 766 mmHg 21%
    15:00 +1°C° 0 mm 1 mps 765 mmHg 23%
    16:00 +1°C° 0 mm 1 mps 765 mmHg 24%
    17:00 0°C° 0 mm 1 mps 764 mmHg 25%
    18:00 -3°C° 0 mm 2 mps 764 mmHg 26%
    19:00 -3°C° 0 mm 2 mps 763 mmHg 25%
    20:00 -3°C° 0 mm 2 mps 762 mmHg 25%
    21:00 -3°C° 0 mm 2 mps 762 mmHg 25%
    22:00 -3°C° 0 mm 2 mps 761 mmHg 25%
    23:00 -4°C° 0 mm 3 mps 761 mmHg 25%

    Tomorrow, 18 November, Sunday

    Time Temperature Precipitation Wind Pressure Humidity
    00:00 -5°C° 0 mm 3 mps 760 mmHg 25%
    01:00 -5°C° 0 mm 3 mps 760 mmHg 25%
    02:00 -5°C° 0 mm 3 mps 759 mmHg 25%
    03:00 -5°C° 0 mm 3 mps 759 mmHg 26%
    04:00 -5°C° 0 mm 3 mps 758 mmHg 26%
    05:00 -5°C° 0 mm 3 mps 758 mmHg 26%
    06:00 -5°C° 0 mm 3 mps 757 mmHg 26%
    07:00 -5°C° 0 mm 3 mps 757 mmHg 25%
    08:00 -5°C° 0 mm 3 mps 757 mmHg 25%
    09:00 -4°C° 0 mm 3 mps 757 mmHg 24%
    10:00 -2°C° 0 mm 3 mps 756 mmHg 23%
    11:00 -1°C° 0 mm 3 mps 756 mmHg 22%
    12:00 -1°C° 0 mm 4 mps 756 mmHg 21%
    13:00 0°C° 0 mm 3 mps 756 mmHg 23%
    14:00 0°C° 0 mm 3 mps 756 mmHg 25%
    15:00 +1°C° 0 mm 2 mps 756 mmHg 26%
    16:00 -1°C° 0 mm 2 mps 756 mmHg 29%
    17:00 -2°C° 0 mm 2 mps 756 mmHg 31%
    18:00 -3°C° 0 mm 2 mps 756 mmHg 33%
    19:00 -3°C° 0 mm 2 mps 756 mmHg 34%
    20:00 -3°C° 0 mm 2 mps 757 mmHg 35%
    21:00 -3°C° 0 mm 2 mps 757 mmHg 36%
    22:00 -4°C° 0 mm 2 mps 757 mmHg 37%
    23:00 -4°C° 0 mm 2 mps 757 mmHg 38%

    Day after tomorrow, 19 November, Monday

    Time Temperature Precipitation Wind Pressure Humidity
    00:00 -2°C° 0 mm 1 mps 757 mmHg 39%
    01:00 -2°C° 0 mm 1 mps 757 mmHg 39%
    02:00 -2°C° 0 mm 1 mps 757 mmHg 40%
    03:00 -2°C° 0 mm 1 mps 758 mmHg 40%
    04:00 -2°C° 0 mm 1 mps 758 mmHg 41%
    05:00 -3°C° 0 mm 1 mps 758 mmHg 41%
    06:00 -3°C° 0 mm 1 mps 758 mmHg 42%
    07:00 -2°C° 0 mm 1 mps 758 mmHg 41%
    08:00 -3°C° 0 mm 0 mps 759 mmHg 40%
    09:00 -3°C° 0 mm 0 mps 759 mmHg 40%
    10:00 -2°C° 0 mm 0 mps 759 mmHg 37%
    11:00 -1°C° 0 mm 0 mps 760 mmHg 35%
    12:00 0°C° 0 mm 0 mps 760 mmHg 32%
    13:00 0°C° 0 mm 0 mps 760 mmHg 34%
    14:00 0°C° 0 mm 0 mps 760 mmHg 35%
    15:00 0°C° 0 mm 0 mps 760 mmHg 36%
    16:00 0°C° 0 mm 1 mps 760 mmHg 38%
    17:00 0°C° 0 mm 1 mps 760 mmHg 39%
    18:00 -1°C° 0 mm 1 mps 760 mmHg 41%
    19:00 -1°C° 0 mm 1 mps 760 mmHg 42%
    20:00 -1°C° 0 mm 1 mps 760 mmHg 42%
    21:00 -1°C° 0 mm 1 mps 760 mmHg 43%
    22:00 -1°C° 0 mm 1 mps 760 mmHg 43%
    23:00 -2°C° 0 mm 1 mps 760 mmHg 43%

    20 November, Tuesday

    Time Temperature Precipitation Wind Pressure Humidity
    00:00 -2°C° 0 mm 1 mps 760 mmHg 43%
    01:00 -4°C° 0 mm 2 mps 760 mmHg 44%
    02:00 -4°C° 0 mm 2 mps 760 mmHg 45%
    03:00 -4°C° 0 mm 2 mps 760 mmHg 46%
    04:00 -4°C° 0 mm 2 mps 760 mmHg 47%
    05:00 -4°C° 0 mm 2 mps 760 mmHg 49%
    06:00 -4°C° 0 mm 2 mps 759 mmHg 51%
    07:00 -4°C° 0 mm 2 mps 759 mmHg 52%
    08:00 -4°C° 0 mm 2 mps 759 mmHg 53%
    09:00 -4°C° 0 mm 2 mps 759 mmHg 53%
    10:00 -3°C° 0 mm 2 mps 759 mmHg 52%
    11:00 -2°C° 0 mm 2 mps 759 mmHg 50%
    12:00 -1°C° 0 mm 2 mps 759 mmHg 49%
    13:00 -1°C° 0 mm 2 mps 758 mmHg 53%
    14:00 -1°C° 0 mm 2 mps 758 mmHg 56%
    15:00 -1°C° 0 mm 2 mps 758 mmHg 60%
    16:00 -2°C° 0 mm 2 mps 758 mmHg 66%
    17:00 -2°C° 0 mm 2 mps 757 mmHg 73%
    18:00 -3°C° 0 mm 2 mps 757 mmHg 80%
    19:00 -3°C° 0 mm 2 mps 757 mmHg 82%
    20:00 -3°C° 0 mm 2 mps 757 mmHg 85%
    21:00 -3°C° 0 mm 2 mps 757 mmHg 88%
    22:00 -3°C° 0 mm 2 mps 757 mmHg 89%
    23:00 -3°C° 0 mm 2 mps 757 mmHg 90%

    21 November, Wednesday

    Time Temperature Precipitation Wind Pressure Humidity
    00:00 -3°C° 0 mm 2 mps 757 mmHg 90%
    01:00 -3°C° 0 mm 2 mps 757 mmHg 91%
    02:00 -3°C° 0 mm 2 mps 756 mmHg 91%
    03:00 -3°C° 0 mm 2 mps 756 mmHg 92%
    04:00 -3°C° 0 mm 2 mps 756 mmHg 92%
    05:00 -4°C° 0 mm 2 mps 756 mmHg 91%
    06:00 -4°C° 0 mm 2 mps 756 mmHg 91%
    07:00 -3°C° 0 mm 2 mps 756 mmHg 90%
    08:00 -3°C° 0 mm 2 mps 756 mmHg 88%
    09:00 -3°C° 0 mm 2 mps 756 mmHg 87%
    10:00 -4°C° 0 mm 3 mps 756 mmHg 81%
    11:00 -2°C° 0 mm 3 mps 755 mmHg 76%
    12:00 -1°C° 0 mm 3 mps 755 mmHg 70%
    13:00 -1°C° 0 mm 3 mps 755 mmHg 69%
    14:00 -1°C° 0 mm 3 mps 755 mmHg 68%
    15:00 -2°C° 0 mm 3 mps 754 mmHg 67%
    16:00 -2°C° 0 mm 3 mps 754 mmHg 70%
    17:00 -2°C° 0 mm 3 mps 754 mmHg 73%
    18:00 -3°C° 0 mm 2 mps 754 mmHg 76%
    19:00 -3°C° 0 mm 2 mps 754 mmHg 77%
    20:00 -3°C° 0 mm 2 mps 754 mmHg 79%
    21:00 -3°C° 0 mm 2 mps 753 mmHg 81%
    22:00 -4°C° 0 mm 3 mps 753 mmHg 82%
    23:00 -5°C° 0 mm 3 mps 753 mmHg 83%

    22 November, Thursday

    Time Temperature Precipitation Wind Pressure Humidity
    00:00 -5°C° 0 mm 3 mps 753 mmHg 85%
    01:00 -5°C° 0 mm 3 mps 753 mmHg 85%
    02:00 -5°C° 0 mm 3 mps 753 mmHg 84%
    03:00 -5°C° 0 mm 3 mps 753 mmHg 84%
    04:00 -5°C° 0 mm 3 mps 753 mmHg 84%
    05:00 -4°C° 0 mm 3 mps 752 mmHg 84%
    06:00 -4°C° 0 mm 3 mps 752 mmHg 84%
    07:00 -4°C° 0 mm 3 mps 753 mmHg 81%
    08:00 -4°C° 0 mm 4 mps 753 mmHg 77%
    09:00 -4°C° 0 mm 4 mps 753 mmHg 74%
    10:00 -4°C° 0 mm 4 mps 753 mmHg 69%
    11:00 -3°C° 0 mm 4 mps 753 mmHg 64%
    12:00 -3°C° 0 mm 4 mps 752 mmHg 59%
    13:00 -3°C° 0 mm 4 mps 752 mmHg 60%
    14:00 -3°C° 0 mm 4 mps 752 mmHg 61%
    15:00 -4°C° 0 mm 5 mps 752 mmHg 62%
    16:00 -4°C° 0 mm 4 mps 752 mmHg 65%
    17:00 -4°C° 0 mm 4 mps 752 mmHg 68%
    18:00 -4°C° 0 mm 4 mps 752 mmHg 72%
    19:00 -5°C° 0 mm 5 mps 752 mmHg 73%
    20:00 -5°C° 0 mm 5 mps 752 mmHg 74%
    21:00 -5°C° 0 mm 6 mps 752 mmHg 76%
    22:00 -5°C° 0 mm 6 mps 752 mmHg 76%
    23:00 -5°C° 0 mm 5 mps 752 mmHg 77%
    Show more